Tracking 26492 objects as of 7-Dec-2022
HD Live streaming from Space Station
objects crossing your sky now

SL-12 R/B(2)

Track SL-12 R/B(2) now!


NORAD ID: 26486
Int'l Code: 2000-051D
Perigee: 1,812.3 km
Apogee: 51,160.3 km
Inclination: 63.1 °
Period: 987.9 minutes
Semi major axis: 32857 km
RCS: 27.9141 m2 (large)
Launch date: September 5, 2000
Source: Commonwealth of Independent States (former USSR) (CIS)
Launch site: TYURATAM MISSILE AND SPACE COMPLEX (TTMTR)

Note: This is a ROCKET BODY
aabbcc
Your satellite tracking list
Your tracking list is empty




NASA's NSSDC Master Catalog

Two Line Element Set (TLE):
1 26486U 00051D   22339.46042274 -.00000305  00000-0  00000-0 0  9999
2 26486  63.0773 330.9626 7509431 275.1123  72.5062  1.45765477118449
Source of the keplerian elements: AFSPC